Estación de Santa Brisilia

Ultimos registro cada 15 minutos 72
Estación Fecha / Hora Temperatura Humedad Lluvia Velocidad Dirección Radiación Presion
72 Santa Brisilia 02-09-2026 22:00 14,2 88 0 0 284 0 1056,1
71 Santa Brisilia 02-09-2026 21:45 14,4 87 0 0,4 283 0 1055,9
70 Santa Brisilia 02-09-2026 21:30 14,6 87 0 0 334 0 1055,9
69 Santa Brisilia 02-09-2026 21:15 14,7 86 0 0,4 271 0 1056,2
68 Santa Brisilia 02-09-2026 21:00 14,8 86 0 0 283 0 1056
67 Santa Brisilia 02-09-2026 20:45 14,9 86 0 1,8 278 0 1055,8
66 Santa Brisilia 02-09-2026 20:30 15 85 0 0,9 269 0 1055,8
65 Santa Brisilia 02-09-2026 20:15 15,1 84 0 1,8 275 0 1055,5
64 Santa Brisilia 02-09-2026 20:00 15,2 83 0 0,4 253 0 1055,2
63 Santa Brisilia 02-09-2026 19:45 15,5 82 0 1,8 265 0 1055,2
62 Santa Brisilia 02-09-2026 19:30 15,8 80 0 0,9 263 0 1054,8
61 Santa Brisilia 02-09-2026 19:15 16,3 78 0 1,8 267 0 1054,7
60 Santa Brisilia 02-09-2026 19:00 16,6 75 0 1,8 304 0 1054,2
59 Santa Brisilia 02-09-2026 18:45 16,8 74 0 1,8 277 0 1053,8
58 Santa Brisilia 02-09-2026 18:30 17,1 72 0 1,8 265 0 1053,6
57 Santa Brisilia 02-09-2026 18:15 17,6 71 0 3,1 265 5 1053,3
56 Santa Brisilia 02-09-2026 18:00 18,1 69 0 0,9 272 23 1053,1
55 Santa Brisilia 02-09-2026 17:45 18,8 68 0 1,8 315 30 1052,7
54 Santa Brisilia 02-09-2026 17:30 19,4 68 0 1,8 240 86 1052,2
53 Santa Brisilia 02-09-2026 17:15 20,4 64 0 2,2 239 67 1051,5
52 Santa Brisilia 02-09-2026 17:00 20,8 64 0 3,1 291 302 1051,7
51 Santa Brisilia 02-09-2026 16:45 21,9 58 0 1,8 263 236 1051,3
50 Santa Brisilia 02-09-2026 16:30 21,8 57 0 0,9 140 492 1051,4
49 Santa Brisilia 02-09-2026 16:15 21,1 58 0 1,3 161 239 1051,4
48 Santa Brisilia 02-09-2026 16:00 20,9 58 0 1,3 217 264 1051,3
47 Santa Brisilia 02-09-2026 15:45 21,7 54 0 0,9 283 176 1051,3
46 Santa Brisilia 02-09-2026 15:30 22 51 0 1,3 165 508 1051,1
45 Santa Brisilia 02-09-2026 15:15 21,6 49 0 2,2 265 617 1051,3
44 Santa Brisilia 02-09-2026 15:00 21,4 50 0 1,3 271 617 1051,2
43 Santa Brisilia 02-09-2026 14:45 21,4 49 0 2,2 285 594 1051,2
42 Santa Brisilia 02-09-2026 14:30 21,2 50 0 0,9 153 621 1051,1
41 Santa Brisilia 02-09-2026 14:15 21,2 47 0 2,2 264 645 1051,1
40 Santa Brisilia 02-09-2026 14:00 21 50 0 0,9 276 664 1051,2
39 Santa Brisilia 02-09-2026 13:45 20,6 53 0 2,7 252 682 1051,3
38 Santa Brisilia 02-09-2026 13:30 20,3 58 0 0,9 346 722 1051,6
37 Santa Brisilia 02-09-2026 13:15 20,2 57 0 0,4 290 703 1051,8
36 Santa Brisilia 02-09-2026 13:00 19,8 60 0 0 223 710 1051,9
35 Santa Brisilia 02-09-2026 12:45 19,6 61 0 0,9 262 700 1052
34 Santa Brisilia 02-09-2026 12:30 19,1 62 0 0,4 99 751 1052,1
33 Santa Brisilia 02-09-2026 12:15 18,7 62 0 0,9 225 708 1052,5
32 Santa Brisilia 02-09-2026 12:00 18,3 65 0 1,3 51 698 1052,7
31 Santa Brisilia 02-09-2026 11:45 17,6 69 0 0,9 271 677 1052,8
30 Santa Brisilia 02-09-2026 11:30 16,9 67 0 1,3 252 436 1052,8
29 Santa Brisilia 02-09-2026 11:15 16,8 68 0 0,4 257 385 1052,7
28 Santa Brisilia 02-09-2026 11:00 16,4 69 0 2,2 252 617 1052,8
27 Santa Brisilia 02-09-2026 10:45 16,2 69 0 0,4 326 376 1052,4
26 Santa Brisilia 02-09-2026 10:30 15,9 70 0 0,4 252 540 1052,4
25 Santa Brisilia 02-09-2026 10:15 15,3 73 0 1,3 267 378 1052,5
24 Santa Brisilia 02-09-2026 10:00 14,8 75 0 0 155 633 1052,6
23 Santa Brisilia 02-09-2026 05:30 9,3 92 0 0 348 0 1051,5
22 Santa Brisilia 02-09-2026 05:15 9,8 91 0 0 348 0 1051,5
21 Santa Brisilia 02-09-2026 05:00 10,1 91 0 0 255 0 1051,4
20 Santa Brisilia 02-09-2026 04:45 10,3 91 0 0 336 0 1051,3
19 Santa Brisilia 02-09-2026 04:30 10,8 90 0 0,4 336 0 1051,3
18 Santa Brisilia 02-09-2026 04:15 11,2 90 0 0 338 0 1051,4
17 Santa Brisilia 02-09-2026 04:00 11,4 90 0 0 256 0 1051,2
16 Santa Brisilia 02-09-2026 03:45 11,6 89 0 0 252 0 1051
15 Santa Brisilia 02-09-2026 03:30 11,8 89 0 0 249 0 1051,4
14 Santa Brisilia 02-09-2026 03:15 11,9 88 0 0 309 0 1051,5
13 Santa Brisilia 02-09-2026 03:00 12,1 87 0 0 309 0 1052
12 Santa Brisilia 02-09-2026 02:45 12,5 86 0 0,4 309 0 1052,1
11 Santa Brisilia 02-09-2026 02:30 12,9 85 0 0 309 0 1052,1
10 Santa Brisilia 02-09-2026 02:15 13,1 85 0 0,4 277 0 1052,3
9 Santa Brisilia 02-09-2026 02:00 12,9 87 0 1,8 275 0 1052,5
8 Santa Brisilia 02-09-2026 01:45 13 86 0 0,4 275 0 1052,1
7 Santa Brisilia 02-09-2026 01:30 13,3 86 0 0,4 327 0 1051,9
6 Santa Brisilia 02-09-2026 01:15 13,5 84 0 0,4 271 0 1052
5 Santa Brisilia 02-09-2026 01:00 13,7 82 0 0 271 0 1052
4 Santa Brisilia 02-09-2026 00:45 14 81 0 0 271 0 1052
3 Santa Brisilia 02-09-2026 00:30 14,2 79 0 0 271 0 1052,3
2 Santa Brisilia 02-09-2026 00:15 14,3 78 0 0,9 277 0 1052,5
1 Santa Brisilia 02-09-2026 00:00 14,4 77 0 0,9 263 0 1052,3